Regional Weather Roundup
Issued by NWS Upton, NY

Current Version | Previous Version | Text Only | Print | Product List | Glossary On
Versions: 1 2 3 4 5 6 7 8 9 10 11 12 13 14 15 16 17 18 19 20 21 22 23 24 25 26 27 28 29 30 31 32 33 34 35 36 37 38 39 40 41 42 43 44 45 46 47 48 49 50
000
ASUS41 KOKX 020905
RWROKX

REGIONAL WEATHER ROUNDUP
NATIONAL WEATHER SERVICE NEW YORK NY
400 AM EST MON MAR 02 2015

NOTE: "FAIR" INDICATES FEW OR NO CLOUDS BELOW 12,000 FEET WITH NO
SIGNIFICANT WEATHER AND/OR OBSTRUCTIONS TO VISIBILITY.

NYZ071-072-176-178-NJZ106-104-021000-
NEW YORK CITY METRO AREA


CITY           SKY/WX    TMP DP  RH WIND       PRES   REMARKS
CENTRAL PARK   CLOUDY    30  24  78 W6        30.06F WCI  24
LAGUARDIA APRT CLOUDY    31  25  78 W12       30.04F WCI  22
KENNEDY INTL   CLOUDY    30  26  85 SW7       30.06F WCI  23
NEWARK/LIBERTY CLOUDY    28  25  88 SW6       30.06F WCI  22
BRNX BOT. GARD   N/A    N/A N/A N/A W7        30.05F
TETERBORO      CLOUDY    29  24  82 CALM      30.05F
$$

NYZ177-179-078>081-021000-
LONG ISLAND NEW YORK

CITY           SKY/WX    TMP DP  RH WIND       PRES   REMARKS
FARMINGDALE    CLOUDY    29  27  92 W5        30.04F FOG     WCI  24
ISLIP          CLOUDY    29  25  85 W5        30.03F WCI  24
SHIRLEY        CLOUDY    29  27  92 W6        30.05F FOG     WCI  23
WESTHAMPTON    CLOUDY    30  26  85 W10       30.05S WCI  21
MONTAUK POINT    N/A     30  27  88 W8        30.03F WCI  22
$$

NYZ052-065-067-021000-
HUDSON VALLEY

CITY           SKY/WX    TMP DP  RH WIND       PRES   REMARKS
WHITE PLAINS   MOCLDY    25  22  88 W5        30.02S FOG     WCI  19
NEWBURGH         N/A     25  23  93 W7        30.02F WCI  17
MONTGOMERY     CLOUDY    24  21  88 SW8       30.01F WCI  15
POUGHKEEPSIE   CLOUDY    27  21  78 SW5       30.02F WCI  22
ALBANY         LGT SNOW  23  19  85 S5        30.02F FOG     WCI  17
$$

NJZ001-105-106-008-010-013-015-019>022-104-021000-
NEW JERSEY

CITY           SKY/WX    TMP DP  RH WIND       PRES   REMARKS
NEWARK/LIBERTY CLOUDY    28  25  88 SW6       30.06F WCI  22
TETERBORO      CLOUDY    29  24  82 CALM      30.05F
CALDWELL       CLOUDY    26  22  84 SW3       30.06F
MORRISTOWN     CLOUDY    28  25  86 CALM      30.05F
SOMERVILLE     CLOUDY    26  23  88 CALM      30.05F FOG
SUSSEX         CLOUDY    24  20  84 SW5       30.04F WCI  18
ANDOVER          N/A     24  22  91 CALM      30.03F
TRENTON        CLOUDY    28  25  88 W5        30.06F FOG     WCI  23
MILLVILLE      CLOUDY    32  31  96 W6        30.09F FOG     WCI  26
ATLANTIC CITY  MIX PCPN  33  31  92 W6        30.08F FOG     WCI  28
WRIGHTSTOWN    CLOUDY    31  31  99 CALM      30.05F
TOMS RIVER     CLOUDY    34  32  93 CALM      30.08S
BELMAR         CLOUDY    32  27  80 CALM      30.06F
$$

PAZ047>061-062-071-021000-
EASTERN PENNSYLVANIA

CITY           SKY/WX    TMP DP  RH WIND       PRES   REMARKS
PHILADELPHIA   CLOUDY    32  30  92 SW5       30.09F FOG     WCI  27
ALLENTOWN      CLOUDY    26  22  84 SW6       30.07F FOG     WCI  19
SCRANTON       LGT SNOW  26  22  84 SW5       30.01F WCI  20
$$

CTZ002-004>006-009-010-012-RIZ004-006-007-MAZ004-011-015-021000-
SOUTHERN NEW ENGLAND
 IN CT

CITY           SKY/WX    TMP DP  RH WIND       PRES   REMARKS
BRADLEY INTL   CLOUDY    27  23  85 CALM      29.99F
HARTFORD       CLOUDY    27  23  85 SE3       30.02F
DANBURY        CLOUDY    24  19  81 W7        30.01F WCI  16
WTRBRY/OXFORD  CLOUDY    25  16  68 CALM      29.98F
BRIDGEPORT     CLOUDY    27  24  89 SW7       30.03F WCI  19
MERIDEN        CLOUDY    26  23  88 S3        30.01F
NEW HAVEN      CLOUDY    27  24  89 SW5       30.02F WCI  22
CHESTER        CLOUDY    28  27  93 CALM      30.00F
GROTON         CLOUDY    27  25  92 W9        30.01F WCI  18
WILLIMANTIC    CLOUDY    27  23  85 CALM      30.00F

 IN RI

CITY           SKY/WX    TMP DP  RH WIND       PRES   REMARKS
PROVIDENCE     CLOUDY    29  24  82 W5        29.99F WCI  24
BLOCK ISLAND   CLOUDY    28  27  93 W13       29.99F WCI  18
WESTERLY       CLOUDY    29  26  89 W5        30.02S WCI  24

 IN MA

CITY           SKY/WX    TMP DP  RH WIND       PRES   REMARKS
BOSTON         CLOUDY    28  24  85 W9        29.97F WCI  19
WORCESTER      CLOUDY    24  20  84 W9        29.92F WCI  14
WESTFIELD      FLURRIES  24  20  84 CALM      29.99F
PROVINCETOWN   MOCLDY    30  27  86 W8        29.97F WCI  23
NANTUCKET      CLOUDY    34  32  92 W13       29.98F WCI  25
$$

ANZ330-335-338-340-345-350-353-355-021000-
COASTAL MARINE OBSERVATIONS


STATION/POSITION TIME  SKY/WX   TEMP    WIND        PRES    VSBY  WAVE
                                AIR SEA DIR/SP/G                  HT/PER
                 (UTC)          (F)     (DEG/KT/KT) (MB)    (MI)  (FT/S)
NY HARB ENTRANCE 0900            31 37   CALM  /  2 1017.8          1/ 9
4S FIRE IS       NOT AVBL
20S FIRE ISLAND  0800               36              1018.8          1/ 9
23SW MTP         0900                                 N/A           2/ 9
HUDSON CANYON    NOT AVBL
EXECUTION ROCKS  NOT AVBL
WESTERN LI SOUND NOT AVBL
CENTRAL LI SOUND NOT AVBL
EASTERN LI SOUND NOT AVBL
ROBBINS REEF     0900            28     280/  7/  8 1016.5
$$


>>>>>>>>>>>>>>>>>>>>>>>>>>>> KEY <<<<<<<<<<<<<<<<<<<<<<<<<<<
>                                                          <
>     SKY/WX - SKY CONDITION/PRESENT WEATHER               <
>     TMP    - TEMPERATURE IN FAHRENHEIT                   <
>     DP     - DEWPOINT IN FAHRENHEIT                      <
>     RH     - RELATIVE HUMIDITY IN PERCENT                <
>     WIND   - DIRECTION AND SPEED IN MPH                  <
>     PRES   - MEAN SEA LEVEL PRESSURE IN INCHES OF HG     <
>     WCI    - WIND CHILL INDEX                            <
>     VSB    - VISIBILITY IN MILES                         <
>     HX     - HEAT INDEX                                  <
>     TC     - TEMPERATURE IN CELSIUS                      <
>     VRB    - VARIABLE WIND DIRECTION                     <
>                                                          <
>>>>>>>>>>>>>>>>>>>>>>>>>>>> KEY <<<<<<<<<<<<<<<<<<<<<<<<<<<




USA.gov is the U.S. government's official web portal to all federal, state and local government web resources and services.